Location: Stone Trail Observatory
(44.2408°N, 105.6081°W)
Time: 07:11:45
(UTC-06:00)

Iridium 6 - Visible Passes

Search period start: 07 July 2015 00:00
Search period end: 17 July 2015 00:00
Orbit: 776 x 779 km, 86.4° (Epoch: 06 July)

Date Brightness Start Highest point End Pass type
(mag) Time Alt. Az. Time Alt. Az. Time Alt. Az.
07 Jul 8.0 00:58:22 10° W 01:00:34 12° WNW 01:02:30 10° NW visible
07 Jul 5.9 22:42:44 25° SSE 22:45:29 48° E 22:50:31 10° NNE visible
08 Jul 7.5 00:23:11 13° WSW 00:26:34 22° WNW 00:30:29 10° NNW visible
08 Jul 6.7 22:09:05 16° SE 22:12:07 27° E 22:16:31 10° NNE visible
08 Jul 6.7 23:49:33 19° SW 23:52:44 37° W 23:57:34 10° NNW visible
09 Jul 7.3 21:35:58 10° ESE 21:38:51 16° ENE 21:41:58 10° NE visible
09 Jul 5.8 23:15:53 24° SSW 23:19:04 67° W 23:24:17 10° N visible
10 Jul 5.5 22:42:13 23° SSE 22:45:31 69° E 22:50:44 10° N visible
11 Jul 7.9 00:23:47 10° WSW 00:26:55 15° WNW 00:29:52 10° NW visible
11 Jul 6.2 22:08:33 17° SE 22:12:06 38° E 22:16:56 10° NNE visible
11 Jul 7.3 23:48:59 12° SW 23:52:59 27° WNW 23:57:20 10° NNW visible
12 Jul 6.9 21:34:55 10° SE 21:38:46 22° E 21:42:46 10° NNE visible
12 Jul 6.4 23:15:17 16° SSW 23:19:13 47° W 23:24:15 10° N visible
13 Jul 5.5 22:41:34 17° S 22:45:36 84° W 22:50:51 10° N visible
14 Jul 8.2 00:25:59 10° W 00:27:20 11° WNW 00:28:21 10° NW visible
14 Jul 5.7 22:07:49 14° SSE 22:12:06 54° E 22:17:13 10° NNE visible
14 Jul 7.8 23:49:31 10° WSW 23:53:18 19° WNW 23:56:55 10° NNW visible
15 Jul 6.5 21:34:15 10° SE 21:38:43 31° E 21:43:17 10° NNE visible
15 Jul 7.0 23:14:43 10° SW 23:19:25 33° WNW 23:24:06 10° NNW visible
16 Jul 6.0 22:40:43 11° SSW 22:45:43 59° W 22:50:53 10° N visible
